Location: *
(41.3833°S, 177.8333°W)
Time: 20:34:19
(UTC+00:00)

Cosmos 1844 Rocket - Pass Details

Date: 01 April 2020
Orbit: 824 x 845 km, 71.0° (Epoch: 31 May)

Event Time Altitude Azimuth Distance (km) Brightness Sun altitude
Rises 16:52:52 0° 207° (SSW) 3,397 5.6 -14.9°
Reaches altitude 10° 16:55:19 10° 209° (SSW) 2,457 4.9 -14.4°
Maximum altitude 17:00:55 69° 290° (WNW) 893 2.6 -13.4°
Drops below altitude 10° 17:06:27 10° 12° (NNE) 2,434 5.2 -12.3°
Sets 17:08:53 0° 14° (NNE) 3,362 6.0 -11.9°
